This is the latest recevied weather packets stored in our database for station/object N9BLE. If no packets are shown the sender has not sent any weather packets the latest 10 day(s).
| Time | Temp. | Humidity | Pressure | Rain* | Wind** | Luminosity | Snow |
|---|---|---|---|---|---|---|---|
| 1778023903 | 12.22° C | 39% | 1012.5 hPa | 0 mm | - | 69 W/m² | - |
| 1778023601 | 12.22° C | 42% | 1012.6 hPa | 0 mm | - | 73 W/m² | - |
| 1778023298 | 12.22° C | 38% | 1012.7 hPa | 0 mm | - | 73 W/m² | - |
| 1778022994 | 12.78° C | 37% | 1012.6 hPa | 0 mm | - | 76 W/m² | - |
| 1778022693 | 12.78° C | 38% | 1012.7 hPa | 0 mm | - | 107 W/m² | - |
| 1778022391 | 12.78° C | 38% | 1012.5 hPa | 0 mm | - | 107 W/m² | - |
| 1778022087 | 12.78° C | 37% | 1012.7 hPa | 0 mm | - | 103 W/m² | - |
| 1778021783 | 12.78° C | 37% | 1012.6 hPa | 0 mm | - | 110 W/m² | - |
| 1778021480 | 13.33° C | 37% | 1012.7 hPa | 0 mm | - | 113 W/m² | - |
| 1778021176 | 12.78° C | 39% | 1012.7 hPa | 0 mm | - | 128 W/m² | - |
| 1778020874 | 12.78° C | 36% | 1012.7 hPa | 0 mm | - | 134 W/m² | - |
| 1778020571 | 12.78° C | 38% | 1012.9 hPa | 0 mm | - | 127 W/m² | - |
| 1778020267 | 12.78° C | 38% | 1012.9 hPa | 0 mm | - | 124 W/m² | - |
| 1778019964 | 12.78° C | 40% | 1012.8 hPa | 0 mm | - | 124 W/m² | - |
| 1778019660 | 12.78° C | 38% | 1012.8 hPa | 0 mm | - | 167 W/m² | - |
| 1778019357 | 12.78° C | 40% | 1012.7 hPa | 0 mm | - | 167 W/m² | - |
| 1778019053 | 12.78° C | 39% | 1012.7 hPa | 0 mm | - | 140 W/m² | - |
| 1778018751 | 12.78° C | 35% | 1012.8 hPa | 0 mm | - | 145 W/m² | - |
| 1778018448 | 12.78° C | 36% | 1013 hPa | 0 mm | - | 162 W/m² | - |
| 1778018146 | 12.78° C | 36% | 1012.8 hPa | 0 mm | - | 162 W/m² | - |
| 1778017844 | 12.78° C | 39% | 1012.7 hPa | 0 mm | - | 160 W/m² | - |
| 1778017542 | 12.78° C | 36% | 1012.9 hPa | 0 mm | - | 174 W/m² | - |
| 1778017238 | 12.78° C | 38% | 1012.9 hPa | 0 mm | - | 158 W/m² | - |
| 1778016936 | 12.78° C | 37% | 1013 hPa | 0 mm | - | 166 W/m² | - |
| 1778016632 | 12.78° C | 38% | 1012.9 hPa | 0 mm | - | 166 W/m² | - |
* Rain latest hour (hover to see other rain measurements)
** Current wind speed in m/s (hover to see current wind gust speed)